Weather History for Waukegan, IL

Change the Weather History Date:

Thursday, October 4, 2012

  Actual Average Record
Temperature  
Mean Temperature 63 °F -  
Max Temperature 78 °F 64 °F 86 °F (2005)
Min Temperature 48 °F 46 °F 32 °F (2004)
Degree Days  
Heating Degree Days 2 11  
Month to date heating degree days 25 42  
Since 1 July heating degree days 205 208  
Cooling Degree Days 0 1  
Month to date cooling degree days 0 4  
Year to date cooling degree days 981 561  
Growing Degree Days 14 (Base 50)    
Moisture  
Dew Point 51 °F    
Average Humidity 73    
Maximum Humidity 100    
Minimum Humidity 46    
Precipitation  
Precipitation 0.01 in 0.10 in 0.50 in (2002)
Month to date precipitation 0.06 0.52  
Year to date precipitation 19.94 28.43  
Sea Level Pressure  
Sea Level Pressure 30.00 in    
Wind  
Wind Speed 9 mph (SW)    
Max Wind Speed 24 mph    
Max Gust Speed 32 mph    
Visibility 9 miles    
Events      
T = Trace of Precipitation, MM = Missing Value Source: NWS Daily Summary

Daily Weather History Graph

Daily Weather History Graph

Search for Another Location

Airport:

Trip Planner

Search our weather history database for the weather conditions in past years. The results will help you decide how hot, cold, wet, or windy it might be!

Date:

Astronomy

Oct. 04, 2012 Rise Set
Actual Time 6:52 AM CDT 6:26 PM CDT
Civil Twilight 6:24 AM CDT 6:54 PM CDT
Nautical Twilight 5:51 AM CDT 7:27 PM CDT
Astronomical Twilight 5:18 AM CDT 8:00 PM CDT
Moon 8:56 PM CDT (10/4) 11:14 AM CDT (10/4)
Length of Visible Light 12h 30m
Length of Day
11h 34m
Waning Gibbous, 82% of the Moon is Illuminated
Oct 4
Waning Gibbous
Oct 8
Last Quarter
Oct 15
New
Oct 21
First Quarter
Oct 29
Full

Hourly Weather History & Observations

Time (CDT) Temp. Dew Point Humidity Pressure Visibility Wind Dir Wind Speed Gust Speed Precip Events Conditions
12:52 AM 59.0 °F 57.0 °F 93% 30.01 in 4.0 mi SSW 5.8 mph - N/A   Mostly Cloudy
1:52 AM 59.0 °F 55.9 °F 90% 30.01 in 7.0 mi WSW 3.5 mph - 0.01 in   Overcast
2:52 AM 57.0 °F 55.9 °F 96% 30.00 in 6.0 mi SSW 5.8 mph - 0.00 in   Overcast
3:52 AM 55.9 °F 55.0 °F 97% 30.01 in 5.0 mi SSW 5.8 mph - N/A   Overcast
4:52 AM 55.9 °F 54.0 °F 93% 30.01 in 6.0 mi SSW 8.1 mph - N/A   Mostly Cloudy
5:52 AM 55.0 °F 52.0 °F 89% 30.01 in 8.0 mi SSW 9.2 mph - N/A   Clear
6:52 AM 55.0 °F 52.0 °F 89% 30.01 in 10.0 mi SW 6.9 mph - N/A   Clear
7:52 AM 57.0 °F 52.0 °F 83% 30.01 in 10.0 mi SSW 9.2 mph - N/A   Clear
8:52 AM 61.0 °F 54.0 °F 78% 30.01 in 10.0 mi SSW 9.2 mph - N/A   Clear
9:52 AM 66.0 °F 55.0 °F 68% 29.99 in 10.0 mi SSW 12.7 mph - N/A   Clear
10:52 AM 71.1 °F 54.0 °F 55% 29.98 in 10.0 mi SSW 10.4 mph - N/A   Clear
11:52 AM 75.0 °F 53.1 °F 46% 29.95 in 10.0 mi South 16.1 mph - N/A   Clear
12:52 PM 75.9 °F 54.0 °F 46% 29.93 in 10.0 mi SSW 19.6 mph - N/A   Clear
1:52 PM 75.9 °F 54.0 °F 46% 29.92 in 10.0 mi SSW 24.2 mph 32.2 mph N/A   Clear
2:52 PM 73.0 °F 54.0 °F 51% 29.94 in 10.0 mi WSW 9.2 mph 23.0 mph N/A   Partly Cloudy
3:52 PM 66.0 °F 55.9 °F 70% 29.96 in 10.0 mi WSW 10.4 mph 17.3 mph 0.00 in   Mostly Cloudy
4:52 PM 64.0 °F 51.1 °F 63% 29.99 in 10.0 mi WSW 9.2 mph 19.6 mph N/A   Mostly Cloudy
5:52 PM 60.1 °F 45.0 °F 57% 30.01 in 10.0 mi WSW 6.9 mph - N/A   Partly Cloudy
6:52 PM 55.9 °F 43.0 °F 62% 30.02 in 10.0 mi Variable 4.6 mph - N/A   Clear
8:52 PM 55.9 °F 43.0 °F 62% 30.04 in 10.0 mi Variable 6.9 mph - N/A   Overcast
9:52 PM 55.0 °F 41.0 °F 59% 30.04 in 10.0 mi West 9.2 mph 17.3 mph N/A   Scattered Clouds
10:52 PM 52.0 °F 36.0 °F 54% 30.06 in 10.0 mi West 8.1 mph 17.3 mph N/A   Clear
11:52 PM 50.0 °F 36.0 °F 59% 30.07 in 10.0 mi Variable 5.8 mph - N/A   Clear